Find Local Weather

World > North America > United States > New Hampshire

Portsmouth, New Hampshire Regional Weather

Lat: 43.07N, Lon: 70.76W
Wx Zone: NHZ014
Feedback
Expires:201809240500;;117193
ASUS41 KBOX 240410
RWRBOX

REGIONAL WEATHER ROUNDUP
NATIONAL WEATHER SERVICE BOSTON/NORTON MA
1200 AM EDT MON SEP 24 2018

NOTE:  "FAIR" INDICATES FEW OR NO CLOUDS BELOW 12,000 FEET WITH NO 
SIGNIFICANT WEATHER AND/OR OBSTRUCTIONS TO VISIBILITY.


MEZ002-015-021-024-NHZ003-005-008-011-012-014-VTZ005-008-240500-
NORTHERN NEW ENGLAND
  
CITY           SKY/WX    TMP DP  RH WIND       PRES   REMARKS
PORTLAND ME    FAIR      52  50  93 NW6       30.35R                  
BANGOR ME      CLOUDY    49  40  71 NE13      30.41R                  
CONCORD NH     FAIR      49  45  86 CALM      30.35R                  
MANCHESTER NH  MOCLDY    55  51  86 N6        30.32R                  
NASHUA NH      FAIR      50  50 100 NW3       30.34R                  
PORTSMOUTH NH  MOCLDY    52  50  93 N8        30.32R                  
JAFFREY NH     FAIR      47  47 100 CALM      30.36R                  
KEENE NH       FOG      N/A N/A N/A S5        30.36R VSB 1/2          
BURLINGTON VT  FAIR      48  39  71 N10       30.42R                  
MT. WASHINGTON FOG       32  32 100 NW30G37     N/A  VSB 1/8 WCI  18  
$$


SKY/WX - Weather  TMP - Temperature  DP - Dew Point  RH - Relative Humidity
WIND - Wind Direction/Speed PRES - Barometric Pressure